KA8CNI Weather Reports


Display with metric or nautical units.
time (UTC)temp
F
wind
direction
speed
MPH
gust
MPH
rain 1hr
in
rain 24hr
in
rain mn
in
humidity
%
barometer
mb
20260508114522 49 236 5.0 0.0 0.00 0.00 0.05 84 1010.6
20260508113022 46 294 0.0 0.0 0.00 0.00 0.05 93 1010.7
20260508111521 45 298 0.0 0.0 0.00 0.00 0.05 94 1010.5
20260508110042 44 269 0.0 0.0 0.00 0.00 0.05 94 1010.4
20260508104520 45 269 0.0 0.0 0.00 0.00 0.05 93 1010.4
20260508103019 46 269 2.0 0.0 0.00 0.00 0.05 91 1010.4
20260508101521 46 282 4.0 0.0 0.00 0.00 0.05 90 1010.9
20260508100021 45 286 4.0 0.0 0.00 0.00 0.04 93 1011.0
20260508094517 44 242 0.0 0.0 0.00 0.00 0.04 92 1010.3
20260508093015 45 242 0.0 0.0 0.00 0.00 0.04 89 1010.3
20260508091513 47 242 2.0 0.0 0.00 0.00 0.04 86 1010.4
20260508090017 47 245 5.0 0.0 0.00 0.00 0.04 85 1010.4
20260508084509 47 270 9.0 0.0 0.00 0.00 0.04 86 1010.4
20260508083008 48 286 14.0 0.0 0.00 0.00 0.03 84 1011.0
20260508081508 47 266 9.0 0.0 0.00 0.00 0.01 84 1010.5
20260508080010 47 214 10.0 0.0 0.00 0.00 0.01 84 1010.6
20260508074508 46 221 7.0 0.0 0.00 0.00 0.01 85 1010.6
20260508073106 46 207 5.0 0.0 0.00 0.00 0.01 85 1010.6
20260508071604 47 215 5.0 0.0 0.00 0.00 0.01 84 1010.8
20260508070055 47 215 7.0 0.0 0.00 0.00 0.01 84 1011.0
20260508064554 48 214 7.0 0.0 0.00 0.00 0.01 83 1011.0
20260508063053 48 259 10.0 0.0 0.00 0.00 0.01 83 1011.3
20260508061553 49 246 11.0 0.0 0.00 0.00 0.01 79 1011.5
20260508060050 49 236 9.0 0.0 0.00 0.00 0.00 76 1011.4
20260508054548 48 213 5.0 0.0 0.00 0.00 0.00 78 1011.4
20260508053112 48 211 4.0 0.0 0.00 0.00 0.00 80 1011.3
20260508051546 48 193 4.0 0.0 0.00 0.00 0.00 80 1011.4
20260508050045 48 227 3.0 0.0 0.00 0.00 0.00 79 1011.5
20260508044541 47 235 2.0 0.0 0.00 0.00 0.00 81 1011.6
20260508043039 47 237 1.0 0.0 0.00 0.00 0.00 82 1011.4
20260508041604 47 238 2.0 0.0 0.00 0.00 0.00 80 1011.4
20260508040042 48 245 2.0 0.0 0.00 0.00 0.00 76 1011.4
20260508034536 49 246 4.0 0.0 0.00 0.00 0.00 74 1011.7
20260508033034 49 281 3.0 0.0 0.00 0.00 0.00 74 1011.9
20260508031537 49 295 4.0 0.0 0.00 0.00 0.00 73 1011.8
20260508030036 49 294 5.0 0.0 0.00 0.00 0.00 71 1012.0
20260508024534 50 286 6.0 0.0 0.00 0.00 0.00 69 1012.0
20260508023034 51 285 9.0 0.0 0.00 0.00 0.00 66 1012.0
20260508021534 51 269 7.0 0.0 0.00 0.00 0.00 64 1011.8
20260508020040 50 266 8.0 0.0 0.00 0.00 0.00 66 1011.7
20260508014530 48 251 2.0 0.0 0.00 0.00 0.00 70 1011.4
20260508013030 47 292 0.0 0.0 0.00 0.00 0.00 71 1011.1
20260508011529 47 292 0.0 0.0 0.00 0.00 0.00 72 1011.1
20260508010029 49 292 0.0 0.0 0.00 0.00 0.00 68 1010.9
20260508004532 51 292 0.0 0.0 0.00 0.00 0.00 63 1010.9
20260508003034 51 292 3.0 0.0 0.00 0.00 0.00 57 1010.8
20260508001528 52 292 5.0 0.0 0.00 0.00 0.00 57 1010.6
20260508000031 53 303 6.0 0.0 0.00 0.00 0.00 53 1010.5
20260507234527 54 286 8.0 0.0 0.00 0.00 0.00 54 1010.4
20260507233049 55 303 8.0 0.0 0.00 0.00 0.00 52 1010.5
20260507231531 55 294 7.0 0.0 0.00 0.00 0.00 53 1010.4
20260507230026 54 290 7.0 0.0 0.00 0.00 0.00 54 1010.5
20260507224528 55 290 9.0 0.0 0.00 0.00 0.00 52 1010.7
20260507223028 55 290 9.0 0.0 0.00 0.00 0.00 52 1010.6
20260507221532 55 288 11.0 0.0 0.00 0.00 0.00 51 1010.5
20260507220025 55 287 12.0 0.0 0.00 0.00 0.00 51 1010.5
20260507214523 56 293 13.0 0.0 0.00 0.00 0.00 52 1010.3
20260507213025 55 278 11.0 0.0 0.00 0.00 0.00 52 1010.3
20260507211524 56 275 10.0 0.0 0.00 0.00 0.00 53 1010.3
20260507210021 55 276 13.0 0.0 0.00 0.00 0.00 52 1010.2
20260507204522 55 278 13.0 0.0 0.00 0.00 0.00 56 1010.3
20260507203044 55 265 12.0 0.0 0.00 0.00 0.00 54 1010.0
20260507201610 56 299 14.0 0.0 0.00 0.00 0.00 59 1010.1
20260507200132 53 292 13.0 0.0 0.00 0.00 0.00 58 1010.3
20260507194531 54 275 13.0 0.0 0.00 0.00 0.00 62 1010.2
20260507193049 53 286 13.0 0.0 0.00 0.00 0.00 60 1010.5
20260507191609 54 291 12.0 0.0 0.00 0.00 0.00 60 1010.4
20260507190130 54 296 12.0 0.0 0.00 0.00 0.00 61 1010.4
20260507184532 55 265 10.0 0.0 0.00 0.00 0.00 61 1010.5
20260507183046 54 219 9.0 0.0 0.00 0.00 0.00 61 1010.4
20260507181546 53 278 10.0 0.0 0.00 0.00 0.00 59 1010.6
20260507180040 54 285 13.0 0.0 0.00 0.00 0.00 60 1010.8
20260507174547 54 269 14.0 0.0 0.00 0.00 0.00 62 1010.9
20260507173053 54 280 11.0 0.0 0.00 0.00 0.00 62 1010.8
20260507171544 53 250 12.0 0.0 0.00 0.00 0.00 60 1010.9
20260507170035 54 279 12.0 0.0 0.00 0.00 0.00 59 1011.0
20260507164541 53 284 8.0 0.0 0.00 0.00 0.00 63 1010.9
20260507163033 53 244 10.0 0.0 0.00 0.00 0.00 60 1010.9
20260507161536 53 271 10.0 0.0 0.00 0.00 0.00 59 1011.0
20260507160036 52 256 11.0 0.0 0.00 0.00 0.00 63 1011.1
20260507154529 52 284 10.0 0.0 0.00 0.00 0.00 65 1011.0
20260507153029 52 293 9.0 0.0 0.00 0.00 0.00 66 1011.0
20260507151527 52 268 9.0 0.0 0.00 0.00 0.00 64 1011.1
20260507150025 52 245 9.0 0.0 0.00 0.00 0.00 61 1011.1
20260507144527 52 270 7.0 0.0 0.00 0.00 0.00 74 1011.1
20260507143022 51 259 7.0 0.0 0.00 0.00 0.00 74 1011.1
20260507141521 50 228 6.0 0.0 0.00 0.00 0.00 75 1011.1
20260507140016 49 227 6.0 0.0 0.00 0.00 0.00 77 1011.2
20260507134518 49 277 7.0 0.0 0.00 0.00 0.00 79 1011.4
20260507133013 48 228 6.0 0.0 0.00 0.00 0.00 80 1011.4
20260507131511 47 260 6.0 0.0 0.00 0.00 0.00 82 1011.5
20260507130006 46 263 6.0 0.0 0.00 0.00 0.00 83 1011.5
20260507124514 45 254 6.0 0.0 0.00 0.00 0.00 83 1011.5
20260507123006 45 240 7.0 0.0 0.00 0.00 0.00 84 1011.5
20260507121505 45 259 6.0 0.0 0.00 0.00 0.00 86 1011.5
20260507120015 44 254 7.0 0.0 0.00 0.00 0.00 87 1011.3